contact:dominique.lefevre@mio.osupytheas.fr, maurice.libes@osupytheas.fr, didier.mallarino@osupytheas.fr
Project:EMSO http://www.emso-fr.org/EMSO-France
Depth: 2436.0 m
Title:EMSO Ligure Ouest : Data MII capteur CSTAR
DateTime,Latitude,Longitude,Instrument_Serial,Reference_Counts,Signal_Counts,Corrected_Signal_raw_counts,Calculated_Beam_c_inverse_meters,Internal_thermistor_counts
DateTime,Latitude,Longitude,Instrument_Serial,Reference_Counts,Signal_Counts,Corrected_Signal_raw_counts,Calculated_Beam_c_inverse_meters,Internal_thermistor_counts
2023-09-30T00:02:49,42.805,6.029,CST-1368DR,4151,4495,11481,01.230,553
2023-09-30T00:05:51,42.805,6.029,CST-1368DR,4151,4495,11481,01.230,553
2023-09-30T00:08:52,42.805,6.029,CST-1368DR,4151,4496,11482,01.230,553
2023-09-30T00:11:54,42.805,6.029,CST-1368DR,4151,4495,11480,01.231,553
2023-09-30T00:14:56,42.805,6.029,CST-1368DR,4151,4496,11482,01.230,553
2023-09-30T00:17:57,42.805,6.029,CST-1368DR,4151,4495,11481,01.230,553
2023-09-30T00:20:59,42.805,6.029,CST-1368DR,4151,4495,11479,01.231,553
2023-09-30T00:24:00,42.805,6.029,CST-1368DR,4151,4495,11481,01.230,552
2023-09-30T00:27:02,42.805,6.029,CST-1368DR,4151,4496,11482,01.230,553
2023-09-30T00:30:03,42.805,6.029,CST-1368DR,4151,4496,11482,01.230,553
2023-09-30T00:33:05,42.805,6.029,CST-1368DR,4151,4495,11480,01.231,553
2023-09-30T00:36:07,42.805,6.029,CST-1368DR,4151,4496,11482,01.230,552
2023-09-30T00:39:08,42.805,6.029,CST-1368DR,4151,4496,11482,01.230,553
2023-09-30T00:42:10,42.805,6.029,CST-1368DR,4151,4495,11480,01.231,552
2023-09-30T00:45:11,42.805,6.029,CST-1368DR,4151,4495,11479,01.231,552
2023-09-30T00:48:13,42.805,6.029,CST-1368DR,4151,4495,11479,01.231,553
2023-09-30T00:51:14,42.805,6.029,CST-1368DR,4151,4496,11482,01.230,552
2023-09-30T00:54:16,42.805,6.029,CST-1368DR,4151,4496,11482,01.230,553
2023-09-30T00:57:18,42.805,6.029,CST-1368DR,4151,4497,11484,01.229,552
2023-09-30T01:00:19,42.805,6.029,CST-1368DR,4151,4496,11482,01.230,552
2023-09-30T01:03:21,42.805,6.029,CST-1368DR,4151,4495,11479,01.231,552
2023-09-30T01:06:22,42.805,6.029,CST-1368DR,4151,4496,11483,01.230,553
2023-09-30T01:09:24,42.805,6.029,CST-1368DR,4151,4496,11483,01.230,553
2023-09-30T01:12:25,42.805,6.029,CST-1368DR,4151,4496,11482,01.230,553
2023-09-30T01:15:27,42.805,6.029,CST-1368DR,4151,4496,11482,01.230,553
2023-09-30T01:18:29,42.805,6.029,CST-1368DR,4151,4497,11484,01.229,553
2023-09-30T01:21:30,42.805,6.029,CST-1368DR,4151,4496,11482,01.230,553
2023-09-30T01:24:32,42.805,6.029,CST-1368DR,4151,4496,11483,01.230,553
2023-09-30T01:27:33,42.805,6.029,CST-1368DR,4151,4495,11481,01.230,553
2023-09-30T01:30:35,42.805,6.029,CST-1368DR,4151,4496,11482,01.230,553
2023-09-30T01:33:37,42.805,6.029,CST-1368DR,4151,4496,11483,01.230,553
2023-09-30T01:36:38,42.805,6.029,CST-1368DR,4151,4495,11481,01.230,553
2023-09-30T01:39:40,42.805,6.029,CST-1368DR,4151,4496,11482,01.230,553
2023-09-30T01:42:41,42.805,6.029,CST-1368DR,4151,4496,11482,01.230,553
2023-09-30T01:45:43,42.805,6.029,CST-1368DR,4151,4496,11482,01.230,553
2023-09-30T01:48:44,42.805,6.029,CST-1368DR,4151,4495,11481,01.230,552
2023-09-30T01:51:46,42.805,6.029,CST-1368DR,4151,4496,11483,01.230,552
2023-09-30T01:54:48,42.805,6.029,CST-1368DR,4151,4495,11479,01.231,553
2023-09-30T01:57:49,42.805,6.029,CST-1368DR,4151,4495,11480,01.231,553
2023-09-30T02:00:51,42.805,6.029,CST-1368DR,4151,4494,11478,01.231,553
2023-09-30T02:03:52,42.805,6.029,CST-1368DR,4151,4496,11483,01.230,552
2023-09-30T02:06:54,42.805,6.029,CST-1368DR,4151,4496,11482,01.230,553
2023-09-30T02:09:56,42.805,6.029,CST-1368DR,4151,4495,11480,01.231,553
2023-09-30T02:12:57,42.805,6.029,CST-1368DR,4151,4496,11482,01.230,553
2023-09-30T02:15:59,42.805,6.029,CST-1368DR,4151,4493,11475,01.233,553
2023-09-30T02:19:00,42.805,6.029,CST-1368DR,4151,4495,11479,01.231,553
2023-09-30T02:22:02,42.805,6.029,CST-1368DR,4151,4496,11482,01.230,552
2023-09-30T02:25:03,42.805,6.029,CST-1368DR,4151,4495,11481,01.230,553
2023-09-30T02:28:05,42.805,6.029,CST-1368DR,4151,4496,11482,01.230,553
2023-09-30T02:31:07,42.805,6.029,CST-1368DR,4151,4496,11482,01.230,552
2023-09-30T02:34:08,42.805,6.029,CST-1368DR,4151,4495,11480,01.231,553
2023-09-30T02:37:10,42.805,6.029,CST-1368DR,4151,4496,11482,01.230,553
2023-09-30T02:40:11,42.805,6.029,CST-1368DR,4151,4496,11482,01.230,553
2023-09-30T02:43:13,42.805,6.029,CST-1368DR,4151,4496,11483,01.230,553
2023-09-30T02:46:14,42.805,6.029,CST-1368DR,4151,4494,11478,01.231,553
2023-09-30T02:49:16,42.805,6.029,CST-1368DR,4151,4496,11482,01.230,553
2023-09-30T02:52:18,42.805,6.029,CST-1368DR,4151,4495,11481,01.230,552
2023-09-30T02:55:19,42.805,6.029,CST-1368DR,4151,4496,11482,01.230,553
2023-09-30T02:58:21,42.805,6.029,CST-1368DR,4151,4496,11482,01.230,553
2023-09-30T03:01:22,42.805,6.029,CST-1368DR,4151,4496,11483,01.230,553
2023-09-30T03:04:24,42.805,6.029,CST-1368DR,4151,4495,11481,01.230,553
2023-09-30T03:07:25,42.805,6.029,CST-1368DR,4151,4496,11482,01.230,553
2023-09-30T03:10:27,42.805,6.029,CST-1368DR,4151,4495,11479,01.231,552
2023-09-30T03:13:29,42.805,6.029,CST-1368DR,4151,4496,11482,01.230,552
2023-09-30T03:16:30,42.805,6.029,CST-1368DR,4151,4496,11482,01.230,553
2023-09-30T03:19:32,42.805,6.029,CST-1368DR,4151,4496,11482,01.230,553
2023-09-30T03:22:33,42.805,6.029,CST-1368DR,4151,4495,11480,01.231,553
2023-09-30T03:25:35,42.805,6.029,CST-1368DR,4151,4496,11482,01.230,553
2023-09-30T03:28:37,42.805,6.029,CST-1368DR,4151,4496,11482,01.230,552
2023-09-30T03:31:38,42.805,6.029,CST-1368DR,4151,4496,11483,01.230,553
2023-09-30T03:34:40,42.805,6.029,CST-1368DR,4151,4495,11481,01.230,553
2023-09-30T03:37:41,42.805,6.029,CST-1368DR,4151,4496,11482,01.230,553
2023-09-30T03:40:43,42.805,6.029,CST-1368DR,4151,4496,11483,01.230,553
2023-09-30T03:43:44,42.805,6.029,CST-1368DR,4151,4496,11482,01.230,553
2023-09-30T03:46:46,42.805,6.029,CST-1368DR,4151,4495,11481,01.230,553
2023-09-30T03:49:48,42.805,6.029,CST-1368DR,4151,4494,11477,01.232,553
2023-09-30T03:52:49,42.805,6.029,CST-1368DR,4151,4495,11481,01.230,553
2023-09-30T03:55:51,42.805,6.029,CST-1368DR,4151,4495,11480,01.231,553
2023-09-30T03:58:52,42.805,6.029,CST-1368DR,4151,4495,11481,01.230,553
2023-09-30T04:01:54,42.805,6.029,CST-1368DR,4151,4493,11474,01.233,553
2023-09-30T04:04:56,42.805,6.029,CST-1368DR,4151,4491,11471,01.234,552
2023-09-30T04:07:57,42.805,6.029,CST-1368DR,4151,4492,11472,01.234,553
2023-09-30T04:10:59,42.805,6.029,CST-1368DR,4151,4493,11476,01.232,553
2023-09-30T04:14:00,42.805,6.029,CST-1368DR,4151,4493,11474,01.233,553
2023-09-30T04:17:02,42.805,6.029,CST-1368DR,4151,4493,11474,01.233,553
2023-09-30T04:20:03,42.805,6.029,CST-1368DR,4151,4494,11476,01.232,553
2023-09-30T04:23:05,42.805,6.029,CST-1368DR,4151,4495,11481,01.230,552
2023-09-30T04:26:07,42.805,6.029,CST-1368DR,4151,4496,11482,01.230,552
2023-09-30T04:29:08,42.805,6.029,CST-1368DR,4151,4496,11482,01.230,553
2023-09-30T04:32:10,42.805,6.029,CST-1368DR,4151,4496,11482,01.230,552
2023-09-30T04:35:11,42.805,6.029,CST-1368DR,4151,4496,11482,01.230,553
2023-09-30T04:38:13,42.805,6.029,CST-1368DR,4151,4495,11481,01.230,553
2023-09-30T04:41:14,42.805,6.029,CST-1368DR,4151,4496,11482,01.230,553
2023-09-30T04:44:16,42.805,6.029,CST-1368DR,4151,4495,11479,01.231,553
2023-09-30T04:47:18,42.805,6.029,CST-1368DR,4151,4496,11483,01.230,553
2023-09-30T04:50:19,42.805,6.029,CST-1368DR,4151,4496,11482,01.230,553
2023-09-30T04:53:21,42.805,6.029,CST-1368DR,4151,4497,11484,01.229,553
2023-09-30T04:56:22,42.805,6.029,CST-1368DR,4151,4495,11480,01.231,553
2023-09-30T04:59:24,42.805,6.029,CST-1368DR,4151,4496,11483,01.230,553
2023-09-30T05:02:25,42.805,6.029,CST-1368DR,4151,4495,11480,01.231,553
2023-09-30T05:05:27,42.805,6.029,CST-1368DR,4151,4496,11482,01.230,553
2023-09-30T05:08:29,42.805,6.029,CST-1368DR,4151,4496,11483,01.230,553
2023-09-30T05:11:30,42.805,6.029,CST-1368DR,4151,4495,11481,01.230,553
2023-09-30T05:14:32,42.805,6.029,CST-1368DR,4151,4495,11481,01.230,553
2023-09-30T05:17:33,42.805,6.029,CST-1368DR,4151,4496,11483,01.230,553
2023-09-30T05:20:35,42.805,6.029,CST-1368DR,4151,4497,11484,01.229,553
2023-09-30T05:23:37,42.805,6.029,CST-1368DR,4151,4496,11482,01.230,553
2023-09-30T05:26:38,42.805,6.029,CST-1368DR,4151,4495,11481,01.230,552
2023-09-30T05:29:40,42.805,6.029,CST-1368DR,4151,4496,11483,01.230,553
2023-09-30T05:32:41,42.805,6.029,CST-1368DR,4151,4495,11481,01.230,553
2023-09-30T05:35:43,42.805,6.029,CST-1368DR,4151,4495,11480,01.231,552
2023-09-30T05:38:44,42.805,6.029,CST-1368DR,4151,4495,11480,01.231,553
2023-09-30T05:41:46,42.805,6.029,CST-1368DR,4151,4496,11482,01.230,553
2023-09-30T05:44:48,42.805,6.029,CST-1368DR,4151,4495,11479,01.231,553
2023-09-30T05:47:49,42.805,6.029,CST-1368DR,4151,4494,11477,01.232,552
2023-09-30T05:50:51,42.805,6.029,CST-1368DR,4151,4495,11481,01.230,553
2023-09-30T05:53:52,42.805,6.029,CST-1368DR,4151,4496,11483,01.230,552
2023-09-30T05:56:54,42.805,6.029,CST-1368DR,4151,4495,11481,01.230,552
2023-09-30T05:59:56,42.805,6.029,CST-1368DR,4151,4495,11479,01.231,553
2023-09-30T06:02:57,42.805,6.029,CST-1368DR,4151,4496,11483,01.230,553
2023-09-30T06:05:59,42.805,6.029,CST-1368DR,4151,4496,11482,01.230,552
2023-09-30T06:09:00,42.805,6.029,CST-1368DR,4151,4494,11478,01.231,553
2023-09-30T06:12:02,42.805,6.029,CST-1368DR,4151,4496,11482,01.230,552
2023-09-30T06:15:03,42.805,6.029,CST-1368DR,4151,4495,11480,01.231,553
2023-09-30T06:18:05,42.805,6.029,CST-1368DR,4151,4495,11481,01.230,553
2023-09-30T06:21:07,42.805,6.029,CST-1368DR,4151,4495,11480,01.231,553
2023-09-30T06:24:08,42.805,6.029,CST-1368DR,4151,4495,11480,01.231,553
2023-09-30T06:27:10,42.805,6.029,CST-1368DR,4151,4495,11479,01.231,552
2023-09-30T06:30:13,42.805,6.029,CST-1368DR,4151,4496,11482,01.230,553
2023-09-30T06:33:15,42.805,6.029,CST-1368DR,4151,4496,11482,01.230,553
2023-09-30T06:36:16,42.805,6.029,CST-1368DR,4151,4495,11479,01.231,552
2023-09-30T06:39:18,42.805,6.029,CST-1368DR,4151,4495,11480,01.231,553
2023-09-30T06:42:20,42.805,6.029,CST-1368DR,4151,4495,11481,01.230,553
2023-09-30T06:45:21,42.805,6.029,CST-1368DR,4151,4493,11475,01.233,553
2023-09-30T06:48:23,42.805,6.029,CST-1368DR,4151,4495,11479,01.231,553
2023-09-30T06:51:24,42.805,6.029,CST-1368DR,4151,4495,11481,01.230,552
2023-09-30T06:54:26,42.805,6.029,CST-1368DR,4151,4496,11483,01.230,553
2023-09-30T06:57:27,42.805,6.029,CST-1368DR,4151,4495,11481,01.230,553
2023-09-30T07:00:29,42.805,6.029,CST-1368DR,4151,4496,11482,01.230,553
2023-09-30T07:03:31,42.805,6.029,CST-1368DR,4151,4495,11480,01.231,552
2023-09-30T07:06:32,42.805,6.029,CST-1368DR,4151,4495,11481,01.230,553
2023-09-30T07:09:34,42.805,6.029,CST-1368DR,4151,4495,11479,01.231,553
2023-09-30T07:12:35,42.805,6.029,CST-1368DR,4151,4495,11481,01.230,553
2023-09-30T07:15:37,42.805,6.029,CST-1368DR,4151,4496,11482,01.230,552
2023-09-30T07:18:39,42.805,6.029,CST-1368DR,4151,4496,11482,01.230,552
2023-09-30T07:21:40,42.805,6.029,CST-1368DR,4151,4496,11482,01.230,553
2023-09-30T07:24:42,42.805,6.029,CST-1368DR,4151,4495,11481,01.230,553
2023-09-30T07:27:43,42.805,6.029,CST-1368DR,4151,4495,11481,01.230,553
2023-09-30T07:30:45,42.805,6.029,CST-1368DR,4151,4496,11482,01.230,553
2023-09-30T07:33:46,42.805,6.029,CST-1368DR,4151,4495,11480,01.231,553
2023-09-30T07:36:48,42.805,6.029,CST-1368DR,4151,4495,11479,01.231,553
2023-09-30T07:39:50,42.805,6.029,CST-1368DR,4151,4496,11482,01.230,553
2023-09-30T07:42:51,42.805,6.029,CST-1368DR,4151,4495,11481,01.230,553
2023-09-30T07:45:53,42.805,6.029,CST-1368DR,4151,4496,11482,01.230,552
2023-09-30T07:48:54,42.805,6.029,CST-1368DR,4151,4495,11481,01.230,553
2023-09-30T07:51:56,42.805,6.029,CST-1368DR,4151,4496,11482,01.230,553
2023-09-30T07:54:57,42.805,6.029,CST-1368DR,4151,4494,11478,01.231,552
2023-09-30T07:57:59,42.805,6.029,CST-1368DR,4151,4496,11482,01.230,553
2023-09-30T08:01:01,42.805,6.029,CST-1368DR,4151,4496,11482,01.230,553
2023-09-30T08:04:02,42.805,6.029,CST-1368DR,4151,4496,11482,01.230,553
2023-09-30T08:07:04,42.805,6.029,CST-1368DR,4151,4496,11483,01.230,553
2023-09-30T08:10:05,42.805,6.029,CST-1368DR,4151,4496,11483,01.230,553
2023-09-30T08:13:07,42.805,6.029,CST-1368DR,4151,4496,11483,01.230,553
2023-09-30T08:16:09,42.805,6.029,CST-1368DR,4151,4495,11481,01.230,552
2023-09-30T08:19:10,42.805,6.029,CST-1368DR,4151,4496,11483,01.230,553
2023-09-30T08:22:12,42.805,6.029,CST-1368DR,4151,4496,11482,01.230,553
2023-09-30T08:25:13,42.805,6.029,CST-1368DR,4151,4494,11476,01.232,553
2023-09-30T08:28:15,42.805,6.029,CST-1368DR,4151,4496,11482,01.230,553
2023-09-30T08:31:17,42.805,6.029,CST-1368DR,4151,4496,11482,01.230,553
2023-09-30T08:34:18,42.805,6.029,CST-1368DR,4151,4496,11482,01.230,552
2023-09-30T08:37:20,42.805,6.029,CST-1368DR,4151,4495,11481,01.230,553
2023-09-30T08:40:21,42.805,6.029,CST-1368DR,4151,4495,11481,01.230,553
2023-09-30T08:43:23,42.805,6.029,CST-1368DR,4151,4496,11482,01.230,553
2023-09-30T08:46:24,42.805,6.029,CST-1368DR,4151,4496,11482,01.230,552
2023-09-30T08:49:26,42.805,6.029,CST-1368DR,4151,4496,11482,01.230,553
2023-09-30T08:52:28,42.805,6.029,CST-1368DR,4151,4489,11466,01.236,553
2023-09-30T08:55:29,42.805,6.029,CST-1368DR,4151,4493,11476,01.232,553
2023-09-30T08:58:31,42.805,6.029,CST-1368DR,4151,4495,11479,01.231,553
2023-09-30T09:01:32,42.805,6.029,CST-1368DR,4151,4496,11482,01.230,552
2023-09-30T09:04:34,42.805,6.029,CST-1368DR,4151,4496,11482,01.230,553
2023-09-30T09:07:36,42.805,6.029,CST-1368DR,4151,4496,11482,01.230,553
2023-09-30T09:10:37,42.805,6.029,CST-1368DR,4151,4496,11482,01.230,553
2023-09-30T09:13:39,42.805,6.029,CST-1368DR,4151,4496,11483,01.230,553
2023-09-30T09:16:40,42.805,6.029,CST-1368DR,4151,4496,11483,01.230,552
2023-09-30T09:19:42,42.805,6.029,CST-1368DR,4151,4496,11482,01.230,553
2023-09-30T09:22:43,42.805,6.029,CST-1368DR,4151,4496,11482,01.230,553
2023-09-30T09:25:45,42.805,6.029,CST-1368DR,4151,4496,11482,01.230,552
2023-09-30T09:28:47,42.805,6.029,CST-1368DR,4151,4496,11483,01.230,553
2023-09-30T09:31:48,42.805,6.029,CST-1368DR,4151,4496,11482,01.230,553
2023-09-30T09:34:50,42.805,6.029,CST-1368DR,4151,4494,11478,01.231,552
2023-09-30T09:37:51,42.805,6.029,CST-1368DR,4151,4496,11483,01.230,553
2023-09-30T09:40:53,42.805,6.029,CST-1368DR,4151,4495,11480,01.231,553
2023-09-30T09:43:54,42.805,6.029,CST-1368DR,4151,4494,11478,01.231,553
2023-09-30T09:46:56,42.805,6.029,CST-1368DR,4151,4496,11482,01.230,553
2023-09-30T09:49:58,42.805,6.029,CST-1368DR,4151,4496,11482,01.230,552
2023-09-30T09:52:59,42.805,6.029,CST-1368DR,4151,4495,11480,01.231,553
2023-09-30T09:56:01,42.805,6.029,CST-1368DR,4151,4495,11480,01.231,553
2023-09-30T09:59:02,42.805,6.029,CST-1368DR,4151,4495,11479,01.231,553
2023-09-30T10:02:04,42.805,6.029,CST-1368DR,4151,4495,11481,01.230,553
2023-09-30T10:05:06,42.805,6.029,CST-1368DR,4151,4495,11481,01.230,553
2023-09-30T10:08:07,42.805,6.029,CST-1368DR,4151,4494,11478,01.231,553
2023-09-30T10:11:09,42.805,6.029,CST-1368DR,4151,4495,11481,01.230,553
2023-09-30T10:14:10,42.805,6.029,CST-1368DR,4151,4495,11480,01.231,552
2023-09-30T10:17:12,42.805,6.029,CST-1368DR,4151,4495,11481,01.230,553
2023-09-30T10:20:13,42.805,6.029,CST-1368DR,4151,4495,11480,01.231,553
2023-09-30T10:23:15,42.805,6.029,CST-1368DR,4151,4496,11482,01.230,552
2023-09-30T10:26:17,42.805,6.029,CST-1368DR,4151,4496,11482,01.230,553
2023-09-30T10:29:18,42.805,6.029,CST-1368DR,4151,4495,11479,01.231,552
2023-09-30T10:32:20,42.805,6.029,CST-1368DR,4151,4496,11482,01.230,552
2023-09-30T10:35:21,42.805,6.029,CST-1368DR,4151,4496,11482,01.230,553
2023-09-30T10:38:23,42.805,6.029,CST-1368DR,4151,4494,11478,01.231,552
2023-09-30T10:41:25,42.805,6.029,CST-1368DR,4151,4493,11476,01.232,552
2023-09-30T10:44:26,42.805,6.029,CST-1368DR,4151,4495,11480,01.231,553
2023-09-30T10:47:28,42.805,6.029,CST-1368DR,4151,4495,11479,01.231,552
2023-09-30T10:50:29,42.805,6.029,CST-1368DR,4151,4494,11478,01.231,553
2023-09-30T10:53:31,42.805,6.029,CST-1368DR,4151,4493,11476,01.232,553
2023-09-30T10:56:32,42.805,6.029,CST-1368DR,4151,4494,11478,01.231,552
2023-09-30T10:59:34,42.805,6.029,CST-1368DR,4151,4493,11476,01.232,552
2023-09-30T11:02:36,42.805,6.029,CST-1368DR,4151,4494,11476,01.232,553
2023-09-30T11:05:37,42.805,6.029,CST-1368DR,4151,4493,11476,01.232,553
2023-09-30T11:08:39,42.805,6.029,CST-1368DR,4151,4494,11476,01.232,553
2023-09-30T11:11:40,42.805,6.029,CST-1368DR,4151,4493,11474,01.233,553
2023-09-30T11:14:42,42.805,6.029,CST-1368DR,4151,4493,11475,01.233,553
2023-09-30T11:17:44,42.805,6.029,CST-1368DR,4151,4493,11475,01.233,552
2023-09-30T11:20:45,42.805,6.029,CST-1368DR,4151,4494,11477,01.232,553
2023-09-30T11:23:47,42.805,6.029,CST-1368DR,4151,4494,11476,01.232,553
2023-09-30T11:26:48,42.805,6.029,CST-1368DR,4151,4494,11478,01.231,552
2023-09-30T11:29:50,42.805,6.029,CST-1368DR,4151,4494,11477,01.232,553
2023-09-30T11:32:51,42.805,6.029,CST-1368DR,4151,4493,11474,01.233,553
2023-09-30T11:35:53,42.805,6.029,CST-1368DR,4151,4494,11477,01.232,553
2023-09-30T11:38:55,42.805,6.029,CST-1368DR,4151,4494,11477,01.232,552
2023-09-30T11:41:56,42.805,6.029,CST-1368DR,4151,4494,11478,01.231,553
2023-09-30T11:44:58,42.805,6.029,CST-1368DR,4151,4493,11475,01.233,553
2023-09-30T11:47:59,42.805,6.029,CST-1368DR,4151,4494,11478,01.231,553
2023-09-30T11:51:01,42.805,6.029,CST-1368DR,4151,4493,11476,01.232,553
2023-09-30T11:54:03,42.805,6.029,CST-1368DR,4151,4494,11476,01.232,553
2023-09-30T11:57:04,42.805,6.029,CST-1368DR,4151,4494,11478,01.231,553
2023-09-30T12:00:06,42.805,6.029,CST-1368DR,4151,4494,11477,01.232,553
2023-09-30T12:03:07,42.805,6.029,CST-1368DR,4151,4494,11477,01.232,553
2023-09-30T12:06:09,42.805,6.029,CST-1368DR,4151,4494,11476,01.232,553
2023-09-30T12:09:10,42.805,6.029,CST-1368DR,4151,4494,11478,01.231,553
2023-09-30T12:12:12,42.805,6.029,CST-1368DR,4151,4494,11477,01.232,553
2023-09-30T12:15:14,42.805,6.029,CST-1368DR,4151,4494,11478,01.231,553
2023-09-30T12:18:15,42.805,6.029,CST-1368DR,4151,4493,11474,01.233,552
2023-09-30T12:21:17,42.805,6.029,CST-1368DR,4151,4494,11478,01.231,553
2023-09-30T12:24:18,42.805,6.029,CST-1368DR,4151,4494,11478,01.231,552
2023-09-30T12:27:20,42.805,6.029,CST-1368DR,4151,4495,11479,01.231,552
2023-09-30T12:30:23,42.805,6.029,CST-1368DR,4151,4495,11479,01.231,553
2023-09-30T12:33:25,42.805,6.029,CST-1368DR,4151,4496,11482,01.230,553
2023-09-30T12:36:26,42.805,6.029,CST-1368DR,4151,4494,11478,01.231,553
2023-09-30T12:39:28,42.805,6.029,CST-1368DR,4151,4495,11480,01.231,552
2023-09-30T12:42:29,42.805,6.029,CST-1368DR,4151,4495,11479,01.231,553
2023-09-30T12:45:31,42.805,6.029,CST-1368DR,4151,4494,11478,01.231,553
2023-09-30T12:48:32,42.805,6.029,CST-1368DR,4151,4494,11477,01.232,553
2023-09-30T12:51:34,42.805,6.029,CST-1368DR,4151,4494,11477,01.232,553
2023-09-30T12:54:36,42.805,6.029,CST-1368DR,4151,4494,11477,01.232,553
2023-09-30T12:57:37,42.805,6.029,CST-1368DR,4151,4494,11478,01.231,553
2023-09-30T13:00:39,42.805,6.029,CST-1368DR,4151,4494,11476,01.232,553
2023-09-30T13:03:40,42.805,6.029,CST-1368DR,4151,4494,11478,01.231,553
2023-09-30T13:06:42,42.805,6.029,CST-1368DR,4151,4494,11476,01.232,553
2023-09-30T13:09:43,42.805,6.029,CST-1368DR,4151,4493,11475,01.233,553
2023-09-30T13:12:45,42.805,6.029,CST-1368DR,4151,4494,11477,01.232,553
2023-09-30T13:15:47,42.805,6.029,CST-1368DR,4151,4494,11478,01.231,553
2023-09-30T13:18:48,42.805,6.029,CST-1368DR,4151,4493,11476,01.232,553
2023-09-30T13:21:50,42.805,6.029,CST-1368DR,4151,4492,11472,01.234,553
2023-09-30T13:24:51,42.805,6.029,CST-1368DR,4151,4494,11477,01.232,552
2023-09-30T13:27:53,42.805,6.029,CST-1368DR,4151,4495,11481,01.230,553
2023-09-30T13:30:55,42.805,6.029,CST-1368DR,4151,4493,11476,01.232,553
2023-09-30T13:33:56,42.805,6.029,CST-1368DR,4151,4493,11475,01.233,553
2023-09-30T13:36:58,42.805,6.029,CST-1368DR,4151,4495,11480,01.231,553
2023-09-30T13:39:59,42.805,6.029,CST-1368DR,4151,4494,11478,01.231,553
2023-09-30T13:43:01,42.805,6.029,CST-1368DR,4151,4495,11481,01.230,552
2023-09-30T13:46:02,42.805,6.029,CST-1368DR,4151,4494,11478,01.231,553
2023-09-30T13:49:04,42.805,6.029,CST-1368DR,4151,4495,11479,01.231,553
2023-09-30T13:52:06,42.805,6.029,CST-1368DR,4151,4493,11475,01.233,552
2023-09-30T13:55:07,42.805,6.029,CST-1368DR,4151,4494,11476,01.232,553
2023-09-30T13:58:09,42.805,6.029,CST-1368DR,4151,4494,11476,01.232,553
2023-09-30T14:01:10,42.805,6.029,CST-1368DR,4151,4494,11477,01.232,553
2023-09-30T14:04:12,42.805,6.029,CST-1368DR,4151,4494,11476,01.232,553
2023-09-30T14:07:13,42.805,6.029,CST-1368DR,4151,4494,11476,01.232,553
2023-09-30T14:10:15,42.805,6.029,CST-1368DR,4151,4494,11478,01.231,553
2023-09-30T14:13:17,42.805,6.029,CST-1368DR,4151,4494,11478,01.231,553
2023-09-30T14:16:18,42.805,6.029,CST-1368DR,4151,4493,11474,01.233,552
2023-09-30T14:19:20,42.805,6.029,CST-1368DR,4151,4494,11477,01.232,553
2023-09-30T14:22:21,42.805,6.029,CST-1368DR,4151,4495,11479,01.231,553
2023-09-30T14:25:23,42.805,6.029,CST-1368DR,4151,4493,11476,01.232,553
2023-09-30T14:28:25,42.805,6.029,CST-1368DR,4151,4493,11476,01.232,553
2023-09-30T14:31:26,42.805,6.029,CST-1368DR,4151,4493,11475,01.233,553
2023-09-30T14:34:28,42.805,6.029,CST-1368DR,4151,4493,11474,01.233,553
2023-09-30T14:37:29,42.805,6.029,CST-1368DR,4151,4493,11474,01.233,553
2023-09-30T14:40:31,42.805,6.029,CST-1368DR,4151,4493,11475,01.233,553
2023-09-30T14:43:32,42.805,6.029,CST-1368DR,4151,4494,11476,01.232,553
2023-09-30T14:46:34,42.805,6.029,CST-1368DR,4151,4494,11476,01.232,553
2023-09-30T14:49:36,42.805,6.029,CST-1368DR,4151,4493,11474,01.233,553
2023-09-30T14:52:37,42.805,6.029,CST-1368DR,4151,4493,11474,01.233,553
2023-09-30T14:55:39,42.805,6.029,CST-1368DR,4151,4494,11476,01.232,553
2023-09-30T14:58:40,42.805,6.029,CST-1368DR,4151,4492,11472,01.234,553
2023-09-30T15:01:42,42.805,6.029,CST-1368DR,4151,4492,11472,01.234,553
2023-09-30T15:04:43,42.805,6.029,CST-1368DR,4151,4492,11473,01.233,553
2023-09-30T15:07:45,42.805,6.029,CST-1368DR,4151,4492,11472,01.234,553
2023-09-30T15:10:47,42.805,6.029,CST-1368DR,4151,4492,11472,01.234,553
2023-09-30T15:13:48,42.805,6.029,CST-1368DR,4151,4491,11471,01.234,553
2023-09-30T15:16:50,42.805,6.029,CST-1368DR,4151,4489,11466,01.236,553
2023-09-30T15:19:51,42.805,6.029,CST-1368DR,4151,4492,11473,01.233,553
2023-09-30T15:22:53,42.805,6.029,CST-1368DR,4151,4493,11474,01.233,553
2023-09-30T15:25:55,42.805,6.029,CST-1368DR,4151,4493,11475,01.233,553
2023-09-30T15:28:56,42.805,6.029,CST-1368DR,4151,4492,11473,01.233,553
2023-09-30T15:31:58,42.805,6.029,CST-1368DR,4151,4492,11473,01.233,553
2023-09-30T15:34:59,42.805,6.029,CST-1368DR,4151,4492,11473,01.233,553
2023-09-30T15:38:01,42.805,6.029,CST-1368DR,4151,4492,11473,01.233,553
2023-09-30T15:41:02,42.805,6.029,CST-1368DR,4151,4493,11474,01.233,553
2023-09-30T15:44:04,42.805,6.029,CST-1368DR,4151,4492,11473,01.233,553
2023-09-30T15:47:06,42.805,6.029,CST-1368DR,4151,4493,11474,01.233,553
2023-09-30T15:50:07,42.805,6.029,CST-1368DR,4151,4491,11470,01.234,552
2023-09-30T15:53:09,42.805,6.029,CST-1368DR,4151,4493,11474,01.233,553
2023-09-30T15:56:10,42.805,6.029,CST-1368DR,4151,4492,11473,01.233,552
2023-09-30T15:59:12,42.805,6.029,CST-1368DR,4151,4492,11473,01.233,553
2023-09-30T16:02:13,42.805,6.029,CST-1368DR,4151,4492,11472,01.234,553
2023-09-30T16:05:15,42.805,6.029,CST-1368DR,4151,4492,11472,01.234,553
2023-09-30T16:08:17,42.805,6.029,CST-1368DR,4151,4492,11473,01.233,553
2023-09-30T16:11:18,42.805,6.029,CST-1368DR,4151,4493,11476,01.232,553
2023-09-30T16:14:20,42.805,6.029,CST-1368DR,4151,4493,11474,01.233,553
2023-09-30T16:17:21,42.805,6.029,CST-1368DR,4151,4493,11476,01.232,553
2023-09-30T16:20:23,42.805,6.029,CST-1368DR,4151,4493,11474,01.233,552
2023-09-30T16:23:25,42.805,6.029,CST-1368DR,4151,4492,11473,01.233,552
2023-09-30T16:26:26,42.805,6.029,CST-1368DR,4151,4493,11475,01.233,553
2023-09-30T16:29:28,42.805,6.029,CST-1368DR,4151,4492,11473,01.233,553
2023-09-30T16:32:30,42.805,6.029,CST-1368DR,4151,4493,11474,01.233,553
2023-09-30T16:35:32,42.805,6.029,CST-1368DR,4151,4493,11474,01.233,553
2023-09-30T16:38:34,42.805,6.029,CST-1368DR,4151,4492,11473,01.233,552